Regional Weather Roundup
Issued by NWS

Home | Current Version | Previous Version | Text Only | Print | Product List | Glossary Off
Versions: 1 2 3 4 5 6 7 8 9 10 11 12 13 14 15 16 17 18 19 20 21 22 23 24 25 26 27

000
ASUS45 KBOU 161306
RWRCO

WEATHER ROUNDUP FOR COLORADO
NATIONAL WEATHER SERVICE DENVER/BOULDER CO
700 AM MDT WED APR 16 2014

NOTE: "FAIR" INDICATES FEW OR NO CLOUDS BELOW 12000 FEET WITH NO
SIGNIFICANT WEATHER AND/OR OBSTRUCTIONS TO VISIBILITY.

COZ001>005-013-030-031-161400-
...NORTHWEST COLORADO...

CITY           SKY/WX    TMP DP  RH WIND       PRES   REMARKS
CRAIG          MOCLDY    30  20  66 SW8       29.97R WCI  22
HAYDEN         MOCLDY    32  18  55 W5        29.98R WCI  27
MEEKER         CLOUDY    34  23  64 NE6       29.97R WCI  29
MOUNT WERNER   NOT AVBL
STEAMBOAT SPGS MOCLDY    32  18  56 CALM      29.95R
WALDEN         PTCLDY    25  14  63 W9        29.91R WCI  15
$$

COZ006>008-011-161400-
...WEST CENTRAL VALLEYS...

CITY           SKY/WX    TMP DP  RH WIND       PRES   REMARKS
GRAND JUNCTION MOCLDY    44  24  45 CALM      29.89R
MONTROSE       MOCLDY    40  26  57 VRB3      29.92R
EAGLE          MOCLDY    39  16  38 CALM      29.96R
RIFLE          CLOUDY    43  16  33 NW12      29.94R
DELTA          MOCLDY    39  27  62 NE7       29.90R
NUCLA            N/A     36  19  51 NE5       29.93R
$$

COZ017>023-064>068-161400-
...SOUTHWEST COLORADO...

CITY           SKY/WX    TMP DP  RH WIND       PRES   REMARKS
DURANGO        CLEAR     21   4  47 CALM      29.90R
CORTEZ         CLEAR     25  16  68 E6        29.90R WCI  18
PAGOSA SPRINGS CLEAR     26   8  47 CALM      29.94R
TELLURIDE      CLOUDY    37  10  32 S6        29.97S
WOLF CREEK PAS CLEAR     25   0  33 SW21      30.02R WCI  10
$$

COZ009-010-012-014-032>034-037-058>063-161400-
...CENTRAL COLORADO...

CITY           SKY/WX    TMP DP  RH WIND       PRES   REMARKS
ASPEN          CLOUDY    38  18  44 CALM      29.92R
BUENA VISTA    MOCLDY    41  15  34 NW10G18   29.86S
COPPER MTN     SNOW      19  14  79 W21       29.96R VSB 1/2 WCI   3
BERTHOUD PASS  LGT SNOW  10   0  61 W36G48    29.89R VSB 1   WCI -13
COTTONWOOD PAS MOCLDY    36  10  35 NW12G25   29.90R
GUNNISON       MOCLDY    30  18  59 N3        29.93R
KREMMLING      MOCLDY    32  18  55 W10       29.97R WCI  24
LEADVILLE      CLOUDY    26  19  74 N10       29.93R WCI  16
MONARCH PASS   CLOUDY    23  14  68 W33G47    30.06S WCI   5
SALIDA         MOCLDY    45  15  29 NW5G16    29.92R
SUNLIGHT       CLOUDY    27  14  59 W8        29.98S WCI  18
WILKERSON PASS PTCLDY    25  16  68 W14G29    29.94R WCI  13
$$

COZ069>075-161400-
...SAN LUIS VALLEY/SANGRE DE CRISTO MOUNTAINS...

CITY           SKY/WX    TMP DP  RH WIND       PRES   REMARKS
ALAMOSA        PTCLDY    24  14  65 VRB5      29.89R WCI  18
LA VETA PASS   PTCLDY    32   5  32 SW9G18    29.93R WCI  24
SAGUACHE       PTCLDY    32  10  40 SE3       29.90R
$$

COZ035-036-038>040-161400-
...NORTHERN COLORADO FRONT RANGE...

CITY           SKY/WX    TMP DP  RH WIND       PRES   REMARKS
DENVER INTL AP PTCLDY    38  26  62 NE5       29.83R
DMNS CITY PARK   N/A     46  13  25 NW13G20   29.83R
AURORA         PTCLDY    39  21  48 W6        29.84R
FRONT RANGE AP NOT AVBL
ERIE MUNI ARPT PTCLDY    40  22  47 N6        29.84R
BOULDER MUN AP PTCLDY    45  14  29 NW14      29.82R
CENTENNIAL     MOCLDY    42  17  36 N12       29.84R
BROOMFIELD     PTCLDY    45  14  29 NW14G23   29.83R
FORT COLLINS   CLEAR     39  27  60 N8        29.87R
LONGMONT       CLEAR     38  26  62 CALM      29.85R
$$

COZ041-046-047-076>085-087-088-161400-
...PIKES PEAK/PALMER DIVIDE AND SOUTHERN FOOTHILLS...

CITY           SKY/WX    TMP DP  RH WIND       PRES   REMARKS
COLO. SPRINGS  PTCLDY    41  23  48 NE14      29.81R
A. F. ACADEMY  CLEAR     36  22  58 N9        29.83R
ELLICOTT       NOT AVBL
FALCON         CLEAR     36  27  68 N13       29.84R
FORT CARSON    CLEAR     42  17  37 VRB1      29.80R
LIMON          CLEAR     36  28  73 NW7       29.84R
MONUMENT HILL  PTCLDY    32  27  80 N8        29.84R WCI  25
TRINIDAD       PTCLDY    37  18  46 NW10      29.79R
$$

COZ042>045-048>051-090-091-161400-
...NORTHEAST COLORADO...

CITY           SKY/WX    TMP DP  RH WIND       PRES   REMARKS
GREELEY ARPT   CLEAR     43  25  49 NW28G33   29.83R
AKRON          PTCLDY    37  31  78 N21G28    29.81R
BURLINGTON     PTCLDY    41  30  65 NW21      29.77R
WRAY           PTCLDY    42  34  73 NW21G32   29.76R
STERLING       PTCLDY    43  34  70 NW17G23   29.80R
HOLYOKE        PTCLDY    43  34  70 NW21G30   29.76R
FORT MORGAN    PTCLDY    38  30  74 NW16      29.84R
$$

COZ086-089-092>099-161400-
...SOUTHEAST COLORADO...

CITY           SKY/WX    TMP DP  RH WIND       PRES   REMARKS
PUEBLO         PTCLDY    43  23  45 N10       29.78R
LA JUNTA       PTCLDY    43  27  53 N5        29.78R
LAMAR          PTCLDY    37  26  64 SW6       29.76R
SPRINGFIELD    NOT AVBL
$$



USA.gov is the U.S. government's official web portal to all federal, state and local government web resources and services.